| time (UTC) | temp C | wind direction | speed KPH | gust KPH | rain 1hr cm | rain 24hr cm | rain mn cm | humidity % | barometer mb |
| 20260902185053 | 28 | 237 | 4.8 | 14.5 | 0.00 | 0.00 | 0.00 | 39 | 1016.3 |
| 20260902184552 | 27 | 241 | 4.8 | 11.3 | 0.00 | 0.00 | 0.00 | 39 | 1016.3 |
| 20260902184049 | 27 | 248 | 6.4 | 11.3 | 0.00 | 0.00 | 0.00 | 40 | 1016.4 |
| 20260902183820 | 27 | 248 | 6.4 | 11.3 | 0.00 | 0.00 | 0.00 | 40 | 1016.5 |
| 20260902183050 | 27 | 244 | 4.8 | 11.3 | 0.00 | 0.00 | 0.00 | 39 | 1016.6 |
| 20260902182815 | 27 | 240 | 4.8 | 12.9 | 0.00 | 0.00 | 0.00 | 41 | 1016.8 |
| 20260902182045 | 26 | 240 | 4.8 | 12.9 | 0.00 | 0.00 | 0.00 | 43 | 1016.6 |
| 20260902181545 | 26 | 234 | 4.8 | 11.3 | 0.00 | 0.00 | 0.00 | 42 | 1016.6 |
| 20260902181046 | 26 | 234 | 4.8 | 11.3 | 0.00 | 0.00 | 0.00 | 43 | 1016.8 |
| 20260902180812 | 25 | 236 | 4.8 | 9.7 | 0.00 | 0.00 | 0.00 | 44 | 1016.8 |
| 20260902180042 | 25 | 235 | 4.8 | 11.3 | 0.00 | 0.00 | 0.00 | 43 | 1016.8 |
| 20260902175541 | 25 | 235 | 4.8 | 11.3 | 0.00 | 0.00 | 0.00 | 46 | 1016.9 |
| 20260902174537 | 25 | 227 | 3.2 | 9.7 | 0.00 | 0.00 | 0.00 | 49 | 1016.9 |
| 20260902174037 | 25 | 227 | 3.2 | 11.3 | 0.00 | 0.00 | 0.00 | 50 | 1016.8 |
| 20260902173540 | 25 | 227 | 3.2 | 11.3 | 0.00 | 0.00 | 0.00 | 51 | 1016.9 |
| 20260902173308 | 25 | 227 | 3.2 | 8.0 | 0.00 | 0.00 | 0.00 | 51 | 1016.9 |
| 20260902172534 | 25 | 227 | 3.2 | 8.0 | 0.00 | 0.00 | 0.00 | 53 | 1016.9 |
| 20260902172308 | 24 | 226 | 1.6 | 8.0 | 0.00 | 0.00 | 0.00 | 53 | 1016.9 |
| 20260902171533 | 23 | 226 | 3.2 | 8.0 | 0.00 | 0.00 | 0.00 | 55 | 1016.9 |
| 20260902171033 | 23 | 226 | 4.8 | 8.0 | 0.00 | 0.00 | 0.00 | 55 | 1016.9 |
| 20260902170759 | 23 | 226 | 3.2 | 8.0 | 0.00 | 0.00 | 0.00 | 56 | 1016.8 |
| 20260902170544 | 23 | 226 | 3.2 | 8.0 | 0.00 | 0.00 | 0.00 | 56 | 1016.8 |
| 20260902170030 | 23 | 226 | 3.2 | 6.4 | 0.00 | 0.00 | 0.00 | 59 | 1016.8 |
| 20260902165529 | 22 | 227 | 3.2 | 8.0 | 0.00 | 0.00 | 0.00 | 61 | 1016.9 |
| 20260902165300 | 22 | 227 | 4.8 | 8.0 | 0.00 | 0.00 | 0.00 | 61 | 1016.8 |
| 20260902164524 | 22 | 227 | 3.2 | 9.7 | 0.00 | 0.00 | 0.00 | 63 | 1016.8 |
| 20260902164028 | 22 | 227 | 1.6 | 9.7 | 0.00 | 0.00 | 0.00 | 64 | 1016.8 |
| 20260902163757 | 21 | 227 | 3.2 | 6.4 | 0.00 | 0.00 | 0.00 | 67 | 1016.8 |
| 20260902163026 | 21 | 227 | 3.2 | 8.0 | 0.00 | 0.00 | 0.00 | 68 | 1016.8 |
| 20260902162753 | 21 | 227 | 3.2 | 8.0 | 0.00 | 0.00 | 0.00 | 68 | 1016.8 |
| 20260902162021 | 21 | 227 | 3.2 | 8.0 | 0.00 | 0.00 | 0.00 | 70 | 1016.8 |
| 20260902161522 | 21 | 227 | 3.2 | 8.0 | 0.00 | 0.00 | 0.00 | 72 | 1016.6 |
| 20260902160517 | 20 | 227 | 3.2 | 8.0 | 0.00 | 0.00 | 0.00 | 75 | 1016.6 |
| 20260902160252 | 20 | 226 | 4.8 | 8.0 | 0.00 | 0.00 | 0.00 | 76 | 1016.8 |
| 20260902155749 | 20 | 226 | 3.2 | 8.0 | 0.00 | 0.00 | 0.00 | 77 | 1016.8 |
| 20260902155018 | 20 | 226 | 3.2 | 8.0 | 0.00 | 0.00 | 0.00 | 77 | 1016.8 |
| 20260902154512 | 20 | 227 | 3.2 | 8.0 | 0.00 | 0.00 | 0.00 | 78 | 1016.8 |
| 20260902154014 | 19 | 226 | 3.2 | 8.0 | 0.00 | 0.00 | 0.00 | 78 | 1016.8 |
| 20260902153513 | 19 | 226 | 3.2 | 8.0 | 0.00 | 0.00 | 0.00 | 79 | 1016.8 |
| 20260902153244 | 19 | 226 | 3.2 | 6.4 | 0.00 | 0.00 | 0.00 | 79 | 1016.8 |
| 20260902152512 | 19 | 226 | 3.2 | 8.0 | 0.00 | 0.00 | 0.00 | 78 | 1016.6 |
| 20260902151514 | 19 | 226 | 1.6 | 8.0 | 0.00 | 0.00 | 0.00 | 79 | 1016.5 |
| 20260902151009 | 18 | 226 | 3.2 | 8.0 | 0.00 | 0.00 | 0.00 | 79 | 1016.5 |
| 20260902150010 | 18 | 229 | 3.2 | 8.0 | 0.00 | 0.00 | 0.00 | 79 | 1016.5 |
| 20260902145509 | 18 | 229 | 3.2 | 8.0 | 0.00 | 0.00 | 0.00 | 79 | 1016.6 |
| 20260902145005 | 18 | 229 | 1.6 | 6.4 | 0.00 | 0.00 | 0.00 | 79 | 1016.6 |
| 20260902144737 | 18 | 229 | 1.6 | 8.0 | 0.00 | 0.00 | 0.00 | 79 | 1016.6 |
| 20260902144006 | 18 | 229 | 1.6 | 8.0 | 0.00 | 0.00 | 0.00 | 79 | 1016.4 |
| 20260902143736 | 18 | 229 | 0.0 | 8.0 | 0.00 | 0.00 | 0.00 | 79 | 1016.5 |
| 20260902143001 | 18 | 236 | 0.0 | 6.4 | 0.00 | 0.00 | 0.00 | 79 | 1016.4 |
| 20260902142732 | 18 | 236 | 0.0 | 6.4 | 0.00 | 0.00 | 0.00 | 79 | 1016.4 |
| 20260902141501 | 18 | 236 | 0.0 | 4.8 | 0.00 | 0.00 | 0.00 | 81 | 1016.3 |
| 20260902141228 | 18 | 236 | 0.0 | 3.2 | 0.00 | 0.00 | 0.00 | 81 | 1016.2 |
| 20260902140559 | 17 | 236 | 0.0 | 3.2 | 0.00 | 0.00 | 0.00 | 81 | 1016.2 |
| 20260902135504 | 17 | 236 | 0.0 | 0.0 | 0.00 | 0.00 | 0.00 | 81 | 1016.2 |
| 20260902134454 | 17 | 236 | 0.0 | 0.0 | 0.00 | 0.00 | 0.00 | 82 | 1016.1 |
| 20260902133954 | 17 | 236 | 0.0 | 0.0 | 0.00 | 0.00 | 0.00 | 82 | 1016.0 |
| 20260902133454 | 17 | 236 | 0.0 | 0.0 | 0.00 | 0.00 | 0.00 | 81 | 1016.1 |
| 20260902132950 | 17 | 236 | 0.0 | 0.0 | 0.00 | 0.00 | 0.00 | 82 | 1016.1 |
| 20260902132720 | 17 | 236 | 0.0 | 0.0 | 0.00 | 0.00 | 0.00 | 81 | 1016.1 |
| 20260902131949 | 17 | 236 | 0.0 | 0.0 | 0.00 | 0.00 | 0.00 | 82 | 1016.0 |
| 20260902131449 | 17 | 236 | 0.0 | 0.0 | 0.00 | 0.00 | 0.00 | 82 | 1016.0 |
| 20260902130945 | 17 | 236 | 0.0 | 0.0 | 0.00 | 0.00 | 0.00 | 82 | 1016.0 |
| 20260902130445 | 17 | 236 | 0.0 | 0.0 | 0.00 | 0.00 | 0.00 | 82 | 1016.0 |
| 20260902125946 | 17 | 236 | 0.0 | 0.0 | 0.00 | 0.00 | 0.00 | 82 | 1016.1 |
| 20260902125445 | 17 | 236 | 0.0 | 0.0 | 0.00 | 0.00 | 0.00 | 82 | 1016.1 |
| 20260902124941 | 17 | 236 | 0.0 | 0.0 | 0.00 | 0.00 | 0.00 | 82 | 1016.2 |
| 20260902124441 | 17 | 236 | 0.0 | 0.0 | 0.00 | 0.00 | 0.00 | 82 | 1016.2 |
| 20260902123941 | 17 | 236 | 0.0 | 0.0 | 0.00 | 0.00 | 0.00 | 82 | 1016.2 |
| 20260902123441 | 17 | 236 | 0.0 | 0.0 | 0.00 | 0.00 | 0.00 | 82 | 1016.2 |
| 20260902122936 | 17 | 236 | 0.0 | 0.0 | 0.00 | 0.00 | 0.00 | 82 | 1016.2 |
| 20260902122437 | 17 | 236 | 0.0 | 1.6 | 0.00 | 0.00 | 0.00 | 82 | 1016.2 |
| 20260902121937 | 17 | 236 | 0.0 | 4.8 | 0.00 | 0.00 | 0.00 | 82 | 1016.1 |
| 20260902121437 | 17 | 236 | 0.0 | 4.8 | 0.00 | 0.00 | 0.00 | 82 | 1016.2 |
| 20260902120933 | 17 | 236 | 0.0 | 1.6 | 0.00 | 0.00 | 0.00 | 82 | 1016.1 |
| 20260902120433 | 17 | 236 | 0.0 | 4.8 | 0.00 | 0.00 | 0.00 | 82 | 1016.1 |
| 20260902115933 | 17 | 236 | 1.6 | 4.8 | 0.00 | 0.00 | 0.00 | 83 | 1016.2 |
| 20260902115433 | 17 | 236 | 1.6 | 6.4 | 0.00 | 0.00 | 0.00 | 83 | 1016.2 |
| 20260902115200 | 17 | 236 | 1.6 | 6.4 | 0.00 | 0.00 | 0.00 | 83 | 1016.2 |
| 20260902114429 | 17 | 236 | 0.0 | 4.8 | 0.00 | 0.00 | 0.00 | 83 | 1016.2 |
| 20260902113929 | 17 | 236 | 0.0 | 0.0 | 0.00 | 0.00 | 0.00 | 83 | 1016.2 |
| 20260902113442 | 17 | 236 | 0.0 | 0.0 | 0.00 | 0.00 | 0.00 | 83 | 1016.3 |
| 20260902112925 | 17 | 236 | 0.0 | 0.0 | 0.00 | 0.00 | 0.00 | 83 | 1016.2 |
| 20260902112425 | 17 | 236 | 0.0 | 0.0 | 0.00 | 0.00 | 0.00 | 83 | 1016.3 |
| 20260902112209 | 17 | 236 | 0.0 | 0.0 | 0.00 | 0.00 | 0.00 | 83 | 1016.3 |
| 20260902111425 | 17 | 236 | 0.0 | 0.0 | 0.00 | 0.00 | 0.00 | 83 | 1016.3 |
| 20260902110921 | 17 | 236 | 0.0 | 0.0 | 0.00 | 0.00 | 0.00 | 82 | 1016.3 |
| 20260902110421 | 17 | 236 | 0.0 | 0.0 | 0.00 | 0.00 | 0.00 | 83 | 1016.3 |
| 20260902105921 | 17 | 236 | 0.0 | 0.0 | 0.00 | 0.00 | 0.00 | 83 | 1016.4 |
| 20260902105422 | 17 | 236 | 0.0 | 0.0 | 0.00 | 0.00 | 0.00 | 83 | 1016.4 |
| 20260902105146 | 17 | 236 | 0.0 | 0.0 | 0.00 | 0.00 | 0.00 | 83 | 1016.5 |
| 20260902104649 | 17 | 236 | 0.0 | 0.0 | 0.00 | 0.00 | 0.00 | 82 | 1016.6 |
| 20260902103918 | 17 | 236 | 0.0 | 0.0 | 0.00 | 0.00 | 0.00 | 82 | 1016.6 |
| 20260902103417 | 17 | 236 | 0.0 | 0.0 | 0.00 | 0.00 | 0.00 | 83 | 1016.6 |
| 20260902102913 | 17 | 236 | 0.0 | 0.0 | 0.00 | 0.00 | 0.00 | 83 | 1016.6 |
| 20260902102644 | 17 | 236 | 0.0 | 0.0 | 0.00 | 0.00 | 0.00 | 83 | 1016.6 |
| 20260902101413 | 17 | 236 | 0.0 | 0.0 | 0.00 | 0.00 | 0.00 | 82 | 1016.8 |
| 20260902100908 | 17 | 236 | 0.0 | 0.0 | 0.00 | 0.00 | 0.00 | 82 | 1016.8 |
| 20260902100409 | 17 | 236 | 0.0 | 0.0 | 0.00 | 0.00 | 0.00 | 82 | 1016.8 |
| 20260902095909 | 17 | 236 | 0.0 | 0.0 | 0.00 | 0.00 | 0.00 | 82 | 1016.8 |
| 20260902095410 | 17 | 236 | 0.0 | 0.0 | 0.00 | 0.00 | 0.00 | 82 | 1016.6 |
| 20260902094904 | 17 | 236 | 0.0 | 0.0 | 0.00 | 0.00 | 0.00 | 82 | 1016.8 |
| 20260902094405 | 17 | 236 | 0.0 | 0.0 | 0.00 | 0.00 | 0.00 | 81 | 1016.8 |
| 20260902093905 | 17 | 236 | 0.0 | 0.0 | 0.00 | 0.00 | 0.00 | 81 | 1016.8 |
| 20260902093405 | 17 | 236 | 0.0 | 4.8 | 0.00 | 0.00 | 0.00 | 81 | 1016.8 |
| 20260902093132 | 17 | 236 | 0.0 | 4.8 | 0.00 | 0.00 | 0.00 | 82 | 1016.8 |
| 20260902092401 | 17 | 236 | 0.0 | 0.0 | 0.00 | 0.00 | 0.00 | 81 | 1016.8 |
| 20260902091901 | 17 | 236 | 0.0 | 0.0 | 0.00 | 0.00 | 0.00 | 81 | 1016.8 |
| 20260902091401 | 17 | 236 | 0.0 | 0.0 | 0.00 | 0.00 | 0.00 | 81 | 1016.6 |
| 20260902090857 | 17 | 236 | 0.0 | 0.0 | 0.00 | 0.00 | 0.00 | 81 | 1016.6 |
| 20260902090358 | 17 | 236 | 0.0 | 0.0 | 0.00 | 0.00 | 0.00 | 81 | 1016.5 |
| 20260902085857 | 17 | 236 | 0.0 | 0.0 | 0.00 | 0.00 | 0.00 | 81 | 1016.5 |
| 20260902085358 | 17 | 236 | 0.0 | 3.2 | 0.00 | 0.00 | 0.00 | 81 | 1016.6 |
| 20260902085122 | 17 | 236 | 0.0 | 6.4 | 0.00 | 0.00 | 0.00 | 81 | 1016.6 |
| 20260902084353 | 17 | 236 | 1.6 | 6.4 | 0.00 | 0.00 | 0.00 | 80 | 1016.6 |
| 20260902083853 | 17 | 236 | 3.2 | 6.4 | 0.00 | 0.00 | 0.00 | 80 | 1016.8 |
| 20260902083353 | 18 | 236 | 3.2 | 6.4 | 0.00 | 0.00 | 0.00 | 80 | 1016.6 |
| 20260902082848 | 18 | 236 | 1.6 | 4.8 | 0.00 | 0.00 | 0.00 | 80 | 1016.8 |
| 20260902081850 | 18 | 236 | 3.2 | 6.4 | 0.00 | 0.00 | 0.00 | 80 | 1016.8 |
| 20260902081349 | 18 | 236 | 3.2 | 6.4 | 0.00 | 0.00 | 0.00 | 80 | 1016.8 |
| 20260902080845 | 18 | 236 | 1.6 | 6.4 | 0.00 | 0.00 | 0.00 | 79 | 1016.8 |
| 20260902080345 | 18 | 236 | 1.6 | 6.4 | 0.00 | 0.00 | 0.00 | 79 | 1016.8 |
| 20260902075845 | 18 | 236 | 1.6 | 4.8 | 0.00 | 0.00 | 0.00 | 79 | 1016.6 |
| 20260902075616 | 18 | 236 | 3.2 | 8.0 | 0.00 | 0.00 | 0.00 | 79 | 1016.5 |
| 20260902074841 | 18 | 236 | 3.2 | 8.0 | 0.00 | 0.00 | 0.00 | 79 | 1016.5 |
| 20260902074355 | 18 | 236 | 1.6 | 6.4 | 0.00 | 0.00 | 0.00 | 78 | 1016.4 |
| 20260902073842 | 18 | 236 | 1.6 | 4.8 | 0.00 | 0.00 | 0.00 | 78 | 1016.3 |
| 20260902073342 | 18 | 236 | 1.6 | 4.8 | 0.00 | 0.00 | 0.00 | 78 | 1016.3 |
| 20260902072837 | 18 | 236 | 3.2 | 4.8 | 0.00 | 0.00 | 0.00 | 78 | 1016.3 |
| 20260902072337 | 18 | 236 | 3.2 | 4.8 | 0.00 | 0.00 | 0.00 | 77 | 1016.2 |
| 20260902071837 | 18 | 236 | 3.2 | 4.8 | 0.00 | 0.00 | 0.00 | 77 | 1016.2 |
| 20260902071338 | 18 | 236 | 3.2 | 8.0 | 0.00 | 0.00 | 0.00 | 77 | 1016.1 |
| 20260902070834 | 18 | 236 | 3.2 | 8.0 | 0.00 | 0.00 | 0.00 | 76 | 1016.1 |
| 20260902070604 | 18 | 236 | 3.2 | 6.4 | 0.00 | 0.00 | 0.00 | 76 | 1016.0 |
| 20260902065332 | 19 | 236 | 3.2 | 6.4 | 0.00 | 0.00 | 0.00 | 75 | 1016.1 |
| 20260902064830 | 19 | 236 | 4.8 | 8.0 | 0.00 | 0.00 | 0.00 | 75 | 1016.1 |
| 20260902064330 | 19 | 236 | 4.8 | 8.0 | 0.00 | 0.00 | 0.00 | 75 | 1016.0 |
| 20260902063831 | 19 | 236 | 4.8 | 8.0 | 0.00 | 0.00 | 0.00 | 74 | 1016.0 |
| 20260902063329 | 19 | 236 | 4.8 | 8.0 | 0.00 | 0.00 | 0.00 | 74 | 1016.0 |
| 20260902062828 | 19 | 236 | 4.8 | 8.0 | 0.00 | 0.00 | 0.00 | 73 | 1015.9 |
| 20260902062327 | 19 | 236 | 4.8 | 8.0 | 0.00 | 0.00 | 0.00 | 73 | 1015.9 |
| 20260902061827 | 19 | 236 | 4.8 | 8.0 | 0.00 | 0.00 | 0.00 | 73 | 1015.9 |
| 20260902060823 | 20 | 236 | 4.8 | 9.7 | 0.00 | 0.00 | 0.00 | 72 | 1015.9 |
| 20260902060320 | 20 | 236 | 4.8 | 6.4 | 0.00 | 0.00 | 0.00 | 72 | 1015.9 |
| 20260902060052 | 20 | 236 | 4.8 | 11.3 | 0.00 | 0.00 | 0.00 | 71 | 1015.9 |
| 20260902055319 | 20 | 236 | 3.2 | 11.3 | 0.00 | 0.00 | 0.00 | 71 | 1015.8 |
| 20260902054818 | 20 | 240 | 3.2 | 6.4 | 0.00 | 0.00 | 0.00 | 70 | 1015.9 |
| 20260902054318 | 20 | 240 | 3.2 | 6.4 | 0.00 | 0.00 | 0.00 | 70 | 1015.9 |
| 20260902053820 | 20 | 240 | 3.2 | 8.0 | 0.00 | 0.00 | 0.00 | 70 | 1015.7 |
| 20260902053318 | 20 | 240 | 3.2 | 8.0 | 0.00 | 0.00 | 0.00 | 70 | 1015.7 |
| 20260902052814 | 20 | 240 | 3.2 | 8.0 | 0.00 | 0.00 | 0.00 | 69 | 1015.8 |
| 20260902052314 | 20 | 240 | 4.8 | 8.0 | 0.00 | 0.00 | 0.00 | 69 | 1015.8 |
| 20260902052045 | 20 | 240 | 3.2 | 6.4 | 0.00 | 0.00 | 0.00 | 68 | 1015.8 |
| 20260902051310 | 20 | 240 | 3.2 | 4.8 | 0.00 | 0.00 | 0.00 | 68 | 1015.7 |
| 20260902050818 | 20 | 240 | 3.2 | 8.0 | 0.00 | 0.00 | 0.00 | 67 | 1015.8 |
| 20260902050541 | 21 | 240 | 3.2 | 8.0 | 0.00 | 0.00 | 0.00 | 67 | 1015.7 |
| 20260902045810 | 21 | 240 | 3.2 | 8.0 | 0.00 | 0.00 | 0.00 | 67 | 1015.6 |
| 20260902045310 | 21 | 240 | 4.8 | 9.7 | 0.00 | 0.00 | 0.00 | 66 | 1015.6 |
| 20260902044809 | 21 | 240 | 4.8 | 9.7 | 0.00 | 0.00 | 0.00 | 65 | 1015.6 |
| 20260902044539 | 21 | 240 | 4.8 | 11.3 | 0.00 | 0.00 | 0.00 | 65 | 1015.5 |
| 20260902043805 | 21 | 240 | 4.8 | 12.9 | 0.00 | 0.00 | 0.00 | 64 | 1015.4 |
| 20260902043304 | 21 | 238 | 4.8 | 12.9 | 0.00 | 0.00 | 0.00 | 64 | 1015.3 |
| 20260902042804 | 21 | 236 | 4.8 | 11.3 | 0.00 | 0.00 | 0.00 | 64 | 1015.3 |
| 20260902042535 | 21 | 236 | 4.8 | 11.3 | 0.00 | 0.00 | 0.00 | 64 | 1015.2 |
| 20260902041800 | 21 | 235 | 6.4 | 11.3 | 0.00 | 0.00 | 0.00 | 64 | 1015.1 |
| 20260902041531 | 22 | 235 | 6.4 | 16.1 | 0.00 | 0.00 | 0.00 | 64 | 1015.0 |
| 20260902040800 | 22 | 235 | 6.4 | 16.1 | 0.00 | 0.00 | 0.00 | 63 | 1014.9 |
| 20260902040307 | 22 | 234 | 6.4 | 12.9 | 0.00 | 0.00 | 0.00 | 63 | 1014.8 |
| 20260902035800 | 22 | 234 | 6.4 | 16.1 | 0.00 | 0.00 | 0.00 | 62 | 1014.8 |
| 20260902035300 | 22 | 234 | 6.4 | 16.1 | 0.00 | 0.00 | 0.00 | 62 | 1014.6 |
| 20260902035038 | 22 | 235 | 6.4 | 12.9 | 0.00 | 0.00 | 0.00 | 62 | 1014.6 |
| 20260902034532 | 22 | 240 | 6.4 | 12.9 | 0.00 | 0.00 | 0.00 | 61 | 1014.4 |
| 20260902033531 | 23 | 233 | 9.7 | 19.3 | 0.00 | 0.00 | 0.00 | 60 | 1014.2 |
| 20260902032306 | 23 | 221 | 9.7 | 16.1 | 0.00 | 0.00 | 0.00 | 59 | 1014.1 |
| 20260902031752 | 23 | 225 | 9.7 | 19.3 | 0.00 | 0.00 | 0.00 | 59 | 1014.1 |
| 20260902031251 | 23 | 225 | 9.7 | 19.3 | 0.00 | 0.00 | 0.00 | 59 | 1014.0 |
| 20260902030751 | 23 | 223 | 9.7 | 12.9 | 0.00 | 0.00 | 0.00 | 58 | 1014.0 |
| 20260902030522 | 23 | 229 | 9.7 | 14.5 | 0.00 | 0.00 | 0.00 | 57 | 1013.9 |
| 20260902025751 | 23 | 221 | 9.7 | 14.5 | 0.00 | 0.00 | 0.00 | 56 | 1013.9 |
| 20260902025250 | 23 | 223 | 9.7 | 14.5 | 0.00 | 0.00 | 0.00 | 55 | 1013.9 |
| 20260902024747 | 23 | 219 | 9.7 | 19.3 | 0.00 | 0.00 | 0.00 | 54 | 1013.9 |
| 20260902024247 | 24 | 214 | 9.7 | 20.9 | 0.00 | 0.00 | 0.00 | 53 | 1013.8 |
| 20260902023744 | 24 | 221 | 9.7 | 20.9 | 0.00 | 0.00 | 0.00 | 51 | 1013.7 |
| 20260902022743 | 25 | 221 | 9.7 | 19.3 | 0.00 | 0.00 | 0.00 | 46 | 1013.6 |
| 20260902022509 | 25 | 225 | 11.3 | 22.5 | 0.00 | 0.00 | 0.00 | 44 | 1013.6 |
| 20260902021740 | 25 | 219 | 12.9 | 22.5 | 0.00 | 0.00 | 0.00 | 42 | 1013.6 |
| 20260902021239 | 25 | 228 | 12.9 | 22.5 | 0.00 | 0.00 | 0.00 | 40 | 1013.6 |
| 20260902021011 | 26 | 217 | 11.3 | 22.5 | 0.00 | 0.00 | 0.00 | 37 | 1013.6 |
| 20260902020238 | 26 | 219 | 9.7 | 14.5 | 0.00 | 0.00 | 0.00 | 34 | 1013.6 |
| 20260902015740 | 26 | 212 | 9.7 | 16.1 | 0.00 | 0.00 | 0.00 | 32 | 1013.6 |
| 20260902015237 | 26 | 219 | 9.7 | 16.1 | 0.00 | 0.00 | 0.00 | 32 | 1013.5 |
| 20260902015008 | 27 | 227 | 9.7 | 17.7 | 0.00 | 0.00 | 0.00 | 32 | 1013.5 |
| 20260902014237 | 27 | 208 | 9.7 | 17.7 | 0.00 | 0.00 | 0.00 | 31 | 1013.5 |
| 20260902013738 | 27 | 221 | 11.3 | 17.7 | 0.00 | 0.00 | 0.00 | 31 | 1013.6 |
| 20260902013237 | 27 | 217 | 12.9 | 20.9 | 0.00 | 0.00 | 0.00 | 31 | 1013.5 |
| 20260902012737 | 27 | 214 | 12.9 | 20.9 | 0.00 | 0.00 | 0.00 | 31 | 1013.5 |
| 20260902012237 | 27 | 221 | 12.9 | 27.4 | 0.00 | 0.00 | 0.00 | 31 | 1013.5 |
| 20260902011737 | 27 | 234 | 12.9 | 27.4 | 0.00 | 0.00 | 0.00 | 30 | 1013.5 |
| 20260902011236 | 28 | 226 | 12.9 | 22.5 | 0.00 | 0.00 | 0.00 | 30 | 1013.5 |
| 20260902010738 | 28 | 220 | 12.9 | 24.1 | 0.00 | 0.00 | 0.00 | 30 | 1013.6 |
| 20260902010236 | 28 | 215 | 14.5 | 24.1 | 0.00 | 0.00 | 0.00 | 28 | 1013.6 |
| 20260902005738 | 28 | 219 | 12.9 | 24.1 | 0.00 | 0.00 | 0.00 | 28 | 1013.7 |
| 20260902005236 | 28 | 225 | 11.3 | 20.9 | 0.00 | 0.00 | 0.00 | 29 | 1013.7 |
| 20260902005007 | 28 | 223 | 12.9 | 22.5 | 0.00 | 0.00 | 0.00 | 29 | 1013.7 |
| 20260902004237 | 28 | 223 | 12.9 | 22.5 | 0.00 | 0.00 | 0.00 | 28 | 1013.8 |
| 20260902003737 | 29 | 234 | 11.3 | 20.9 | 0.00 | 0.00 | 0.00 | 28 | 1013.8 |
| 20260902003234 | 29 | 202 | 12.9 | 20.9 | 0.00 | 0.00 | 0.00 | 28 | 1013.8 |
| 20260902002735 | 29 | 192 | 12.9 | 22.5 | 0.00 | 0.00 | 0.00 | 28 | 1013.8 |
| 20260902002235 | 29 | 209 | 12.9 | 22.5 | 0.00 | 0.00 | 0.00 | 28 | 1013.8 |
| 20260902001735 | 29 | 219 | 12.9 | 22.5 | 0.00 | 0.00 | 0.00 | 28 | 1013.8 |
| 20260902001505 | 30 | 209 | 12.9 | 24.1 | 0.00 | 0.00 | 0.00 | 27 | 1013.8 |
| 20260902000735 | 30 | 214 | 12.9 | 24.1 | 0.00 | 0.00 | 0.00 | 27 | 1013.9 |
| 20260902000235 | 30 | 212 | 12.9 | 25.7 | 0.00 | 0.00 | 0.00 | 26 | 1013.8 |
| 20260901235735 | 30 | 211 | 12.9 | 25.7 | 0.00 | 0.00 | 0.00 | 25 | 1013.8 |
| 20260901235235 | 30 | 200 | 12.9 | 24.1 | 0.00 | 0.00 | 0.00 | 25 | 1013.8 |
| 20260901234736 | 30 | 219 | 12.9 | 24.1 | 0.00 | 0.00 | 0.00 | 25 | 1013.8 |
| 20260901234230 | 30 | 202 | 12.9 | 25.7 | 0.00 | 0.00 | 0.00 | 25 | 1013.7 |
| 20260901233743 | 31 | 215 | 11.3 | 25.7 | 0.00 | 0.00 | 0.00 | 25 | 1013.8 |
| 20260901233231 | 31 | 213 | 11.3 | 22.5 | 0.00 | 0.00 | 0.00 | 25 | 1013.7 |
| 20260901232730 | 31 | 232 | 12.9 | 24.1 | 0.00 | 0.00 | 0.00 | 25 | 1013.7 |
| 20260901232226 | 31 | 215 | 12.9 | 24.1 | 0.00 | 0.00 | 0.00 | 24 | 1013.8 |
| 20260901231727 | 31 | 211 | 11.3 | 22.5 | 0.00 | 0.00 | 0.00 | 24 | 1013.7 |
| 20260901231228 | 31 | 223 | 11.3 | 19.3 | 0.00 | 0.00 | 0.00 | 23 | 1013.8 |
| 20260901230726 | 31 | 225 | 11.3 | 22.5 | 0.00 | 0.00 | 0.00 | 24 | 1013.7 |
| 20260901230227 | 31 | 223 | 11.3 | 22.5 | 0.00 | 0.00 | 0.00 | 24 | 1013.7 |
| 20260901225726 | 31 | 224 | 12.9 | 22.5 | 0.00 | 0.00 | 0.00 | 25 | 1013.8 |
| 20260901225454 | 31 | 222 | 12.9 | 25.7 | 0.00 | 0.00 | 0.00 | 24 | 1013.8 |
| 20260901224723 | 31 | 213 | 14.5 | 25.7 | 0.00 | 0.00 | 0.00 | 25 | 1013.8 |
| 20260901224218 | 31 | 222 | 14.5 | 25.7 | 0.00 | 0.00 | 0.00 | 26 | 1013.8 |
| 20260901223720 | 31 | 224 | 12.9 | 25.7 | 0.00 | 0.00 | 0.00 | 27 | 1013.8 |
| 20260901223220 | 32 | 203 | 11.3 | 25.7 | 0.00 | 0.00 | 0.00 | 27 | 1013.9 |
| 20260901222718 | 31 | 209 | 12.9 | 22.5 | 0.00 | 0.00 | 0.00 | 29 | 1013.8 |
| 20260901222217 | 31 | 183 | 12.9 | 22.5 | 0.00 | 0.00 | 0.00 | 29 | 1013.8 |
| 20260901221716 | 32 | 285 | 12.9 | 27.4 | 0.00 | 0.00 | 0.00 | 29 | 1013.9 |
| 20260901221217 | 32 | 209 | 11.3 | 27.4 | 0.00 | 0.00 | 0.00 | 30 | 1013.9 |
| 20260901220716 | 32 | 212 | 11.3 | 24.1 | 0.00 | 0.00 | 0.00 | 29 | 1013.9 |
| 20260901220231 | 32 | 207 | 12.9 | 24.1 | 0.00 | 0.00 | 0.00 | 28 | 1014.0 |
| 20260901215717 | 32 | 215 | 12.9 | 27.4 | 0.00 | 0.00 | 0.00 | 29 | 1014.0 |
| 20260901215217 | 32 | 215 | 11.3 | 27.4 | 0.00 | 0.00 | 0.00 | 27 | 1014.1 |
| 20260901214712 | 32 | 238 | 9.7 | 19.3 | 0.00 | 0.00 | 0.00 | 26 | 1014.2 |
| 20260901214211 | 32 | 215 | 11.3 | 24.1 | 0.00 | 0.00 | 0.00 | 26 | 1014.1 |
| 20260901213943 | 32 | 220 | 12.9 | 24.1 | 0.00 | 0.00 | 0.00 | 26 | 1014.2 |
| 20260901213211 | 32 | 219 | 12.9 | 25.7 | 0.00 | 0.00 | 0.00 | 25 | 1014.1 |
| 20260901212711 | 32 | 224 | 12.9 | 25.7 | 0.00 | 0.00 | 0.00 | 24 | 1014.3 |
| 20260901212209 | 32 | 198 | 11.3 | 20.9 | 0.00 | 0.00 | 0.00 | 23 | 1014.3 |
| 20260901211706 | 32 | 219 | 11.3 | 20.9 | 0.00 | 0.00 | 0.00 | 21 | 1014.3 |
| 20260901211205 | 32 | 232 | 9.7 | 20.9 | 0.00 | 0.00 | 0.00 | 20 | 1014.4 |
| 20260901210704 | 32 | 221 | 8.0 | 20.9 | 0.00 | 0.00 | 0.00 | 19 | 1014.4 |
| 20260901210204 | 32 | 226 | 11.3 | 20.9 | 0.00 | 0.00 | 0.00 | 18 | 1014.4 |
| 20260901205704 | 32 | 228 | 12.9 | 22.5 | 0.00 | 0.00 | 0.00 | 18 | 1014.5 |
| 20260901205203 | 32 | 252 | 9.7 | 22.5 | 0.00 | 0.00 | 0.00 | 19 | 1014.4 |
| 20260901204703 | 32 | 224 | 9.7 | 22.5 | 0.00 | 0.00 | 0.00 | 20 | 1014.5 |
| 20260901203705 | 32 | 213 | 9.7 | 22.5 | 0.00 | 0.00 | 0.00 | 21 | 1014.5 |
| 20260901203434 | 32 | 224 | 8.0 | 22.5 | 0.00 | 0.00 | 0.00 | 20 | 1014.6 |
| 20260901202934 | 32 | 185 | 8.0 | 17.7 | 0.00 | 0.00 | 0.00 | 22 | 1014.7 |
| 20260901202203 | 32 | 225 | 8.0 | 14.5 | 0.00 | 0.00 | 0.00 | 23 | 1014.7 |
| 20260901201932 | 32 | 198 | 9.7 | 17.7 | 0.00 | 0.00 | 0.00 | 24 | 1014.8 |
| 20260901201200 | 32 | 216 | 8.0 | 17.7 | 0.00 | 0.00 | 0.00 | 25 | 1014.9 |
| 20260901200702 | 32 | 225 | 6.4 | 14.5 | 0.00 | 0.00 | 0.00 | 25 | 1015.0 |
| 20260901200200 | 31 | 221 | 6.4 | 19.3 | 0.00 | 0.00 | 0.00 | 25 | 1015.0 |
| 20260901195702 | 31 | 226 | 8.0 | 19.3 | 0.00 | 0.00 | 0.00 | 27 | 1015.2 |
| 20260901195428 | 31 | 231 | 6.4 | 16.1 | 0.00 | 0.00 | 0.00 | 30 | 1015.2 |
| 20260901194657 | 31 | 215 | 6.4 | 14.5 | 0.00 | 0.00 | 0.00 | 30 | 1015.3 |
| 20260901194157 | 30 | 216 | 6.4 | 14.5 | 0.00 | 0.00 | 0.00 | 31 | 1015.3 |
| 20260901193652 | 30 | 214 | 6.4 | 11.3 | 0.00 | 0.00 | 0.00 | 32 | 1015.3 |
| 20260901193151 | 30 | 234 | 4.8 | 11.3 | 0.00 | 0.00 | 0.00 | 31 | 1015.5 |
| 20260901192649 | 30 | 248 | 6.4 | 12.9 | 0.00 | 0.00 | 0.00 | 31 | 1015.6 |
| 20260901192421 | 30 | 244 | 4.8 | 12.9 | 0.00 | 0.00 | 0.00 | 31 | 1015.7 |
| 20260901191649 | 29 | 221 | 4.8 | 12.9 | 0.00 | 0.00 | 0.00 | 36 | 1015.7 |
| 20260901191149 | 29 | 223 | 6.4 | 12.9 | 0.00 | 0.00 | 0.00 | 34 | 1015.7 |
| 20260901190649 | 28 | 231 | 6.4 | 12.9 | 0.00 | 0.00 | 0.00 | 33 | 1015.8 |
| 20260901190149 | 29 | 231 | 8.0 | 12.9 | 0.00 | 0.00 | 0.00 | 32 | 1015.8 |
| 20260901185649 | 29 | 231 | 8.0 | 14.5 | 0.00 | 0.00 | 0.00 | 31 | 1015.8 |